Skip Page Navigation
NASA JPL Caltech
NASA Logo - Jet Propulsion Laboratory + View the NASA Portal
+ Center for Near-Earth Object Studies
JPL Home Earth Solar System Stars & Galaxies Technology
JPL Solar System Dynamics
BODIES ORBITS EPHEMERIDES TOOLS PHYSICAL DATA DISCOVERY FAQ SITE MAP
IMPORTANT: The SSD Announcement email list is now available. Major changes are coming in the near future, including possible hostname and/or URL changes. To be notified of such changes, subscribe to this email list.

Please visit this page for more details.


JPL Small-Body Database Browser
Search: [ help ]  
105567 (2000 RG64)
Classification: Main-belt Asteroid          SPK-ID: 2105567
Ephemeris | Orbit Diagram | Orbital Elements | Mission Design | Physical Parameters | Discovery Circumstances | Close-Approach Data ]

[ show orbit diagram ]
Orbital Elements at Epoch 2459000.5 (2020-May-31.0) TDB
Reference: JPL 20 (heliocentric ecliptic J2000)
 Element Value Uncertainty (1-sigma)   Units 
e .2159918466487779 3.735e-08  
a 3.157531292251698 2.3094e-08 au
q 2.475530277586952 1.1767e-07 au
i 17.82850405326832 5.3024e-06 deg
node 217.3509406003288 1.4397e-05 deg
peri 85.13876260278367 1.9137e-05 deg
M 200.7568605473719 1.4312e-05 deg
tp 2459907.021590392499
(2022-Nov-23.52159039)
8.6757e-05 TDB
period 2049.367863903374
5.61
2.2483e-05
6.156e-08
d
yr
n .1756639236619618 1.9272e-09 deg/d
Q 3.839532306916444 2.8082e-08 au
  Orbit Determination Parameters
   # obs. used (total)      664  
   data-arc span      7571 days (20.73 yr)  
   first obs. used      1999-04-11  
   last obs. used      2020-01-02  
   planetary ephem.      DE431  
   SB-pert. ephem.      SB431-N16  
   condition code      0  
   norm. resid. RMS      .507  
   source      ORB  
   producer      Otto Matic  
   solution date      2020-Feb-24 02:24:58  

Additional Information
 Earth MOID = 1.5394 au 
 Jupiter MOID = 1.71503 au 
 T_jup = 3.096 
[ show covariance matrix ]

Ephemeris | Orbit Diagram | Orbital Elements | Mission Design | Physical Parameters | Discovery Circumstances | Close-Approach Data ]

Physical Parameter Table
Parameter Symbol Value Units Sigma Reference Notes
absolute magnitude H 14.5   n/a MPO432578  
diameter diameter 7.709 km 0.166 urn:nasa:pds:neowise_diameters_albedos::2.0[mainbelt] (http://adsabs.harvard.edu/abs/2011ApJ...741...68M)  
geometric albedo albedo 0.040   0.003 urn:nasa:pds:neowise_diameters_albedos::2.0[mainbelt] (http://adsabs.harvard.edu/abs/2011ApJ...741...68M)  

105567 (2000 RG64)          Discovered 2000-Sep-01 by LINEAR at Socorro
Reference: 20051019/Numbers.arcLast Updated: 2005-10-26

[ show close-approach data ]
Ephemeris | Orbit Diagram | Orbital Elements | Mission Design | Physical Parameters | Discovery Circumstances | Close-Approach Data ]
ABOUT SSD CREDITS/AWARDS PRIVACY/COPYRIGHT GLOSSARY LINKS
FirstGov 2020-Apr-09 18:09 UT
(server date/time)  
NASA Home Page
Site Manager:   Ryan S. Park
Webmaster  Alan B. Chamberlin